KB3HLL Weather Reports


time (UTC)temp
C
wind
direction
speed
KPH
gust
KPH
rain 1hr
cm
rain 24hr
cm
rain mn
cm
humidity
%
barometer
mb
20260504050618 7 311 6.4 11.3 0.00 0.00 0.00 64 1013.9
20260504050118 8 297 3.2 4.8 0.00 0.00 0.00 63 1014.0
20260504045619 8 286 6.4 11.3 0.00 0.00 0.00 63 1014.1
20260504045117 8 296 4.8 8.0 0.00 0.00 0.00 63 1014.0
20260504044619 8 320 6.4 9.7 0.00 0.00 0.00 63 1014.0
20260504044117 8 308 6.4 9.7 0.00 0.00 0.00 62 1014.0
20260504043617 8 306 4.8 8.0 0.00 0.00 0.00 62 1014.0
20260504043117 8 285 4.8 6.4 0.00 0.00 0.00 62 1014.1
20260504042617 8 329 4.8 12.9 0.00 0.00 0.00 62 1014.1
20260504042117 8 311 4.8 8.0 0.00 0.00 0.00 61 1014.0
20260504041618 8 308 3.2 4.8 0.00 0.00 0.00 61 1014.0
20260504041118 8 287 6.4 11.3 0.00 0.00 0.00 61 1014.0
20260504040617 8 288 4.8 6.4 0.00 0.00 0.00 61 1014.0
20260504040119 8 299 4.8 6.4 0.00 0.00 0.00 61 1014.0
20260504035617 8 295 6.4 8.0 0.00 0.00 0.00 61 1014.0
20260504035118 8 307 6.4 9.7 0.00 0.00 0.00 60 1014.0
20260504034618 8 309 3.2 6.4 0.00 0.00 0.00 60 1014.0
20260504034117 8 290 4.8 9.7 0.00 0.00 0.00 60 1014.0
20260504033617 8 287 6.4 9.7 0.00 0.00 0.00 60 1014.1
20260504033117 8 305 3.2 6.4 0.00 0.00 0.00 59 1014.0
20260504032617 8 289 6.4 8.0 0.00 0.00 0.00 59 1014.1
20260504032117 8 297 3.2 4.8 0.00 0.00 0.00 59 1014.0
20260504031620 8 309 3.2 6.4 0.00 0.00 0.00 60 1014.0
20260504031119 8 303 4.8 9.7 0.00 0.00 0.00 59 1014.0
20260504030617 8 284 4.8 6.4 0.00 0.00 0.00 59 1014.0
20260504030118 8 290 3.2 4.8 0.00 0.00 0.00 59 1014.0
20260504025617 8 309 3.2 4.8 0.00 0.00 0.00 59 1014.1
20260504025117 8 315 1.6 4.8 0.00 0.00 0.00 59 1014.0
20260504024618 8 292 3.2 3.2 0.00 0.00 0.00 58 1014.1
20260504024122 8 328 3.2 3.2 0.00 0.00 0.00 58 1014.1
20260504023617 8 290 3.2 6.4 0.00 0.00 0.00 58 1014.1
20260504023117 8 279 4.8 4.8 0.00 0.00 0.00 59 1014.1
20260504022617 8 290 4.8 8.0 0.00 0.00 0.00 59 1014.1
20260504022117 9 327 1.6 3.2 0.00 0.00 0.00 59 1014.0
20260504021618 9 304 4.8 8.0 0.00 0.00 0.00 58 1014.0
20260504021118 9 328 3.2 6.4 0.00 0.00 0.00 58 1014.1
20260504020617 9 310 4.8 6.4 0.00 0.00 0.00 58 1014.1
20260504020118 9 293 3.2 4.8 0.00 0.00 0.00 58 1014.0
20260504015617 9 271 3.2 6.4 0.00 0.00 0.00 57 1014.0
20260504015117 9 290 3.2 3.2 0.00 0.00 0.00 58 1014.0
20260504014617 9 302 3.2 4.8 0.00 0.00 0.00 58 1014.1
20260504014117 9 306 3.2 4.8 0.00 0.00 0.00 58 1014.1
20260504013617 9 292 3.2 6.4 0.00 0.00 0.00 58 1014.0
20260504013117 9 351 1.6 3.2 0.00 0.00 0.00 58 1014.0
20260504012617 9 347 0.0 1.6 0.00 0.00 0.00 57 1013.9
20260504012117 9 284 3.2 6.4 0.00 0.00 0.00 57 1013.9
20260504011618 9 293 3.2 4.8 0.00 0.00 0.00 57 1013.9
20260504011117 9 286 3.2 4.8 0.00 0.00 0.00 57 1013.6
20260504010617 9 322 4.8 6.4 0.00 0.00 0.00 57 1013.6
20260504010118 9 274 3.2 4.8 0.00 0.00 0.00 56 1013.6
20260504005618 9 326 1.6 3.2 0.00 0.00 0.00 56 1013.5
20260504005118 9 315 4.8 6.4 0.00 0.00 0.00 56 1013.4
20260504004617 9 320 1.6 1.6 0.00 0.00 0.00 55 1013.5
20260504004117 10 295 4.8 6.4 0.00 0.00 0.00 55 1013.4
20260504003618 10 294 0.0 1.6 0.00 0.00 0.00 55 1013.4
20260504003117 10 303 3.2 6.4 0.00 0.00 0.00 54 1013.4
20260504002618 10 281 3.2 4.8 0.00 0.00 0.00 55 1013.1
20260504002118 10 320 3.2 4.8 0.00 0.00 0.00 55 1013.3
20260504001622 10 299 3.2 3.2 0.00 0.00 0.00 54 1013.1
20260504001117 10 302 3.2 6.4 0.00 0.00 0.00 53 1013.1
20260504000618 10 303 3.2 4.8 0.00 0.00 0.00 53 1013.3
20260504000117 10 321 4.8 8.0 0.00 0.00 0.00 54 1013.1
20260503235617 10 290 3.2 6.4 0.00 0.00 0.00 53 1013.1
20260503235117 10 309 3.2 8.0 0.00 0.00 0.00 53 1013.1
20260503234130 10 316 6.4 8.0 0.00 0.00 0.00 52 1013.0
20260503233617 11 300 1.6 3.2 0.00 0.00 0.00 53 1013.0
20260503233118 11 337 3.2 6.4 0.00 0.00 0.00 53 1013.0
20260503232617 11 282 4.8 9.7 0.00 0.00 0.00 51 1012.9
20260503232118 11 323 3.2 8.0 0.00 0.00 0.00 52 1012.9
20260503231618 11 330 3.2 8.0 0.00 0.00 0.00 52 1013.0
20260503231117 11 278 3.2 4.8 0.00 0.00 0.00 51 1012.9
20260503230617 11 293 3.2 11.3 0.00 0.00 0.00 51 1012.9
20260503230119 11 307 3.2 6.4 0.00 0.00 0.00 49 1012.9
20260503225617 12 305 6.4 8.0 0.00 0.00 0.00 49 1012.9
20260503225118 11 311 3.2 6.4 0.00 0.00 0.00 49 1012.9
20260503224618 11 272 4.8 8.0 0.00 0.00 0.00 51 1012.9
20260503224118 11 298 4.8 8.0 0.00 0.00 0.00 51 1012.7
20260503223617 11 289 1.6 3.2 0.00 0.00 0.00 50 1012.8
20260503223118 11 288 8.0 11.3 0.00 0.00 0.00 49 1012.8
20260503222618 11 288 6.4 9.7 0.00 0.00 0.00 49 1012.8
20260503222117 11 305 3.2 12.9 0.00 0.00 0.00 49 1012.8
20260503221617 12 285 8.0 12.9 0.00 0.00 0.00 48 1012.8
20260503221118 12 296 6.4 9.7 0.00 0.00 0.00 47 1012.8
20260503220618 11 299 3.2 8.0 0.00 0.00 0.00 50 1012.9
20260503220117 11 282 6.4 9.7 0.00 0.00 0.00 49 1012.9
20260503215618 12 296 4.8 11.3 0.00 0.00 0.00 49 1012.9
20260503215118 12 309 4.8 9.7 0.00 0.00 0.00 48 1012.7
20260503214617 12 258 4.8 6.4 0.00 0.00 0.00 47 1012.9
20260503214117 11 259 4.8 8.0 0.00 0.00 0.00 50 1012.8
20260503213618 11 305 8.0 14.5 0.00 0.00 0.00 50 1012.7
20260503213117 12 289 4.8 8.0 0.00 0.00 0.00 49 1012.6
20260503212618 11 284 8.0 14.5 0.00 0.00 0.00 48 1012.7
20260503212118 11 270 4.8 6.4 0.00 0.00 0.00 49 1012.7
20260503211618 12 244 6.4 8.0 0.00 0.00 0.00 48 1012.6
20260503211118 12 315 4.8 8.0 0.00 0.00 0.00 48 1012.6
20260503210617 11 278 3.2 9.7 0.00 0.00 0.00 48 1012.7
20260503210119 11 311 6.4 11.3 0.00 0.00 0.00 48 1012.2
20260503205618 12 307 8.0 14.5 0.00 0.00 0.00 48 1012.5
20260503205117 12 255 4.8 6.4 0.00 0.00 0.00 48 1012.5
20260503204617 12 305 8.0 19.3 0.00 0.00 0.00 48 1012.6
20260503204118 12 271 3.2 9.7 0.00 0.00 0.00 48 1012.8
20260503203618 11 309 6.4 19.3 0.00 0.00 0.00 50 1012.5
20260503203118 11 267 4.8 9.7 0.00 0.00 0.00 49 1012.5
20260503202617 11 262 6.4 9.7 0.00 0.00 0.00 50 1012.6
20260503202117 11 296 6.4 8.0 0.00 0.00 0.00 50 1012.6
20260503201617 11 285 8.0 12.9 0.00 0.00 0.00 49 1012.7
20260503201118 12 305 6.4 14.5 0.00 0.00 0.00 48 1012.6
20260503200617 11 309 8.0 12.9 0.00 0.00 0.00 48 1012.8
20260503200118 11 315 9.7 14.5 0.00 0.00 0.00 49 1012.6
20260503195617 11 312 8.0 9.7 0.00 0.00 0.00 49 1012.8
20260503195117 11 319 8.0 12.9 0.00 0.00 0.00 50 1012.8
20260503194617 11 278 6.4 12.9 0.00 0.00 0.00 49 1012.8
20260503194117 11 324 6.4 9.7 0.00 0.00 0.00 50 1012.8
20260503193618 11 327 6.4 17.7 0.00 0.00 0.00 49 1013.0
20260503193118 11 339 3.2 4.8 0.00 0.00 0.00 50 1013.3
20260503192617 11 283 8.0 12.9 0.00 0.00 0.00 49 1012.9
20260503192117 10 299 9.7 14.5 0.00 0.00 0.00 49 1013.1
20260503191617 11 314 6.4 11.3 0.00 0.00 0.00 50 1013.1
20260503191117 11 328 9.7 17.7 0.00 0.00 0.00 48 1013.3
20260503190617 11 300 9.7 17.7 0.00 0.00 0.00 49 1013.3
20260503190117 11 308 4.8 8.0 0.00 0.00 0.00 49 1013.3
20260503185618 10 306 8.0 14.5 0.00 0.00 0.00 49 1013.4
20260503185118 10 311 8.0 17.7 0.00 0.00 0.00 50 1013.1
20260503184619 10 312 9.7 22.5 0.00 0.00 0.00 51 1013.1
20260503184118 11 335 9.7 17.7 0.00 0.00 0.00 49 1013.4
20260503183617 11 315 8.0 12.9 0.00 0.00 0.00 50 1013.5
20260503183119 11 308 6.4 9.7 0.00 0.00 0.00 49 1013.4
20260503182619 11 237 3.2 4.8 0.00 0.00 0.00 50 1013.4
20260503182117 11 244 3.2 6.4 0.00 0.00 0.00 49 1013.4
20260503181618 11 342 8.0 12.9 0.00 0.00 0.00 49 1013.4
20260503181117 10 274 6.4 12.9 0.00 0.00 0.00 48 1013.5
20260503180618 10 299 4.8 6.4 0.00 0.00 0.00 49 1013.6
20260503180118 10 332 6.4 11.3 0.00 0.00 0.00 50 1013.5
20260503175618 10 320 6.4 11.3 0.00 0.00 0.00 51 1013.6
20260503175118 10 316 6.4 9.7 0.00 0.00 0.00 52 1013.6
20260503174617 10 328 8.0 16.1 0.00 0.00 0.00 50 1013.7
20260503174118 10 325 6.4 11.3 0.00 0.00 0.00 50 1013.7
20260503173617 9 258 4.8 8.0 0.00 0.00 0.00 51 1013.8
20260503173118 9 340 4.8 8.0 0.00 0.00 0.00 51 1013.9
20260503172617 9 278 4.8 8.0 0.00 0.00 0.00 52 1013.8
20260503172117 9 285 8.0 12.9 0.00 0.00 0.00 51 1013.9
20260503171617 8 288 6.4 11.3 0.00 0.00 0.00 53 1013.8
20260503171117 8 328 6.4 9.7 0.00 0.00 0.00 52 1014.0
20260503170617 8 315 6.4 12.9 0.00 0.00 0.00 53 1014.0
20260503170118 9 341 4.8 6.4 0.00 0.00 0.00 53 1014.2
20260503160117 7 309 6.4 8.0 0.00 0.00 0.00 56 1014.5
20260503150618 6 347 4.8 9.7 0.00 0.00 0.00 59 1014.6
20260503150118 6 294 6.4 20.9 0.00 0.00 0.00 59 1014.5
20260503140117 4 307 6.4 11.3 0.00 0.00 0.00 68 1014.9
20260503131118 3 328 6.4 9.7 0.00 0.00 0.00 71 1014.8
20260503130618 2 322 9.7 12.9 0.00 0.00 0.00 73 1014.8
20260503130118 2 320 6.4 11.3 0.00 0.00 0.00 77 1014.9
20260503120117 1 302 4.8 9.7 0.00 0.00 0.00 86 1014.8
20260503110618 0 324 1.6 3.2 0.00 0.00 0.00 90 1014.5
20260503110118 0 317 6.4 9.7 0.00 0.00 0.00 91 1014.5
20260503100117 0 308 3.2 4.8 0.00 0.00 0.00 90 1013.9
20260503090117 0 309 6.4 9.7 0.00 0.00 0.00 87 1013.7
20260503081618 0 326 6.4 9.7 0.00 0.00 0.00 89 1013.5
20260503081118 0 334 8.0 14.5 0.00 0.00 0.00 88 1013.4
20260503080618 0 326 4.8 8.0 0.00 0.00 0.00 89 1013.4
20260503080117 0 327 6.4 12.9 0.00 0.00 0.00 91 1013.5
20260503072617 1 338 4.8 8.0 0.00 0.00 0.00 90 1013.3
20260503072118 1 335 4.8 11.3 0.00 0.00 0.00 90 1013.3
20260503071617 1 327 6.4 9.7 0.00 0.00 0.00 90 1013.1
20260503071117 1 337 4.8 12.9 0.00 0.00 0.00 90 1013.3
20260503070617 1 329 4.8 9.7 0.00 0.00 0.00 90 1013.3
20260503070118 1 320 6.4 9.7 0.00 0.00 0.00 89 1013.3
20260503060117 2 340 6.4 12.9 0.00 0.00 0.00 85 1013.4
20260503055117 2 342 3.2 3.2 0.00 0.00 0.00 84 1013.5
20260503054617 2 321 8.0 12.9 0.00 0.00 0.00 83 1013.5
20260503054117 2 322 6.4 9.7 0.00 0.00 0.00 84 1013.5
20260503053617 2 342 6.4 8.0 0.00 0.00 0.00 84 1013.6